Location: ?p Thanh B�nh
(16.5833°N, 107.5333°E)
Time: 09:30:00
(UTC+00:00)

FENGYUN 3A - Pass Details

Date: 29 October 2020
Orbit: 824 x 835 km, 98.4° (Epoch: 23 November)

Event Time Altitude Azimuth Distance (km) Brightness Sun altitude
Rises 21:08:10 0° 12° (NNE) 3,377 6.9 -24.0°
Reaches altitude 10° 21:10:32 10° 12° (NNE) 2,441 6.1 -23.5°
Maximum altitude 21:15:57 89° 103° (ESE) 837 3.6 -22.2°
Drops below altitude 10° 21:21:22 10° 193° (SSW) 2,433 6.0 -20.9°
Sets 21:23:42 0° 193° (SSW) 3,363 6.8 -20.3°
